Flag for Portugal Weather past 2 weeks in Lisbon, Portugal

Now
72 °F

Passing clouds.


Feels Like: 72 °F
Forecast: 64 / 78 °F
Wind: 10 mph from West

Location: Lisbon Portela Airport

Current Time: Jul 30, 2014 at 8:48:28 PM

Latest Report: Jul 30, 2014 at 8:00 PM


Visibility: N/A

Pressure: 29.92 "Hg

Humidity: 78%

Dew point: 64 °F

Location of LisbonLocation

Historic Weather in Lisbon — Graph

°F

Lisbon temperature yesterday

Maximum temperature yesterday: 88 °F (at 2:52 PM)
Minimum temperature yesterday: 64 °F (at 5:00 AM)
Average temperature yesterday: 75 °F

Past Weeks' High & Low Weather Summary

 TemperatureHumidityPressure
High91 °F (Jul 16, 5:00 PM)100% (Jul 27, 7:00 AM)30.18 "Hg (Jul 27, 7:00 AM)
Low59 °F (Jul 21, 4:00 AM)26% (Jul 16, 5:00 PM)29.86 "Hg (Jul 29, 4:30 PM)
Average70 °F71%29.99 "Hg
* Reported Jul 15 7:00 PM — Jul 30 7:30 PM, Lisbon, Weather by CustomWeather, © 2014

Note: Actual official high and low records may vary slightly from our data, if they occured in-between our weather recording intervals... More about our weather records

Advertising

Lisbon weather history for previous 24 hours

 ConditionsComfort  
Time TempWeatherWind HumidityBarometerVisibility
7:30 PM
Jul 30
73 °FPassing clouds.10 mph69%29.89 "HgN/A
6:30 PM75 °FSunny.14 mph61%29.89 "Hg10 mi
6:00 PM75 °FSunny.13 mph61%29.89 "Hg10 mi
5:30 PM77 °FSunny.14 mph57%29.92 "Hg10 mi
5:00 PM77 °FSunny.13 mph57%29.92 "Hg10 mi
4:00 PM77 °FPassing clouds.12 mph61%29.92 "HgN/A
3:30 PM77 °FSunny.13 mph61%29.92 "Hg10 mi
3:00 PM77 °FPassing clouds.14 mph61%29.92 "HgN/A
2:30 PM77 °FPassing clouds.13 mph61%29.92 "HgN/A
2:00 PM79 °FPassing clouds.10 mph58%29.92 "HgN/A
1:30 PM79 °FPassing clouds.12 mph58%29.92 "HgN/A
1:02 PM79 °FPassing clouds.12 mph58%29.92 "HgN/A
12:30 PM81 °FPassing clouds.8 mph54%29.92 "HgN/A
12:00 PM79 °FPassing clouds.8 mph54%29.92 "HgN/A
11:30 AM77 °FPassing clouds.7 mph61%29.92 "HgN/A
11:00 AM75 °FSunny.5 mph65%29.92 "Hg10 mi
10:30 AM72 °FFog.6 mph73%29.92 "HgN/A
10:00 AM70 °FSleet. Fog.5 mph83%29.92 "HgN/A
9:30 AM68 °FFog.5 mph88%29.92 "Hg4 mi
9:00 AM66 °FFog.6 mph94%29.89 "Hg4 mi
8:30 AM66 °FFog.6 mph94%29.89 "Hg4 mi
8:00 AM64 °FFog.7 mph100%29.89 "HgN/A
7:30 AM64 °FFog.6 mph100%29.89 "HgN/A
7:00 AM66 °FPassing clouds.5 mph94%29.86 "HgN/A
6:30 AM66 °FClear.2 mph83%29.86 "Hg10 mi
6:00 AM64 °FClear.1 mph88%29.86 "Hg10 mi
5:30 AM66 °FClear.1 mph78%29.86 "Hg10 mi
5:00 AM68 °FClear.2 mph73%29.86 "Hg10 mi
4:30 AM68 °FClear.2 mph73%29.86 "Hg10 mi
4:00 AM70 °FClear.2 mph69%29.86 "Hg10 mi
3:30 AM72 °FClear.5 mph65%29.86 "Hg10 mi
3:00 AM72 °FClear.2 mph61%29.86 "Hg10 mi
2:30 AM73 °FPassing clouds.3 mph53%29.86 "HgN/A
2:00 AM75 °FClear.7 mph50%29.86 "Hg10 mi
1:30 AM75 °FClear.2 mph50%29.86 "Hg10 mi
1:00 AM77 °FClear.6 mph47%29.89 "Hg10 mi
12:30 AM75 °FClear.9 mph50%29.89 "Hg10 mi
12:00 AM75 °FClear.9 mph50%29.89 "Hg10 mi
11:30 PM
Jul 29
75 °FClear.9 mph54%29.89 "Hg10 mi
11:00 PM75 °FClear.10 mph54%29.89 "Hg10 mi
10:30 PM75 °FClear.12 mph54%29.89 "Hg10 mi
10:00 PM75 °FClear.10 mph54%29.89 "Hg10 mi
9:30 PM75 °FPassing clouds.10 mph54%29.89 "HgN/A
9:00 PM77 °FSunny.12 mph51%29.89 "Hg10 mi
8:30 PM79 °FSunny.12 mph51%29.89 "Hg10 mi
8:00 PM81 °FSunny.12 mph48%29.86 "Hg10 mi
Weather by CustomWeather, © 2014

See weather overviewHow to use our weather pages